Location: ?????
(31.7405°N, 35.1927°E)
Time: 09:21:49
(UTC+00:00)

STARLINK-1054 - Pass Details

Date: 17 February 2020
Orbit: 548 x 551 km, 53.0° (Epoch: 28 March)

Event Time Altitude Azimuth Distance (km) Brightness Sun altitude
Exits shadow 02:54:58 23° 334° (NNW) 1,196 5.0 -18.7°
Maximum altitude 02:57:20 55° 44° (NE) 664 4.2 -18.2°
Drops below altitude 10° 03:01:24 10° 123° (ESE) 1,816 7.2 -17.3°
Sets 03:03:39 0° 128° (SE) 2,707 8.1 -16.8°
